Location: Foligno
(42.9600°N, 12.7050°E)
Time: 08:25:12
(UTC+02:00)

ISS - Pass Details

Date: 18 May 2018
Orbit: 402 x 407 km, 51.6° (Epoch: 26 May)

Event Time Altitude Azimuth Distance (km) Brightness Sun altitude
Exits shadow 03:20:55 - 303° (WNW) 2,237 -0.1 -20.2°
Reaches altitude 10° 03:23:11 10° 320° (NW) 1,458 -0.8 -20.0°
Maximum altitude 03:25:38 19° 9° (N) 1,028 -1.0 -19.7°
Drops below altitude 10° 03:28:04 10° 58° (ENE) 1,457 0.0 -19.5°
Sets 03:30:33 0° 77° (ENE) 2,316 0.8 -19.2°
